Oxford, MS

2:51 PM CDT on May 29, 2017 (GMT -0500)
University-Oxford

Weather History for KUOX - March, 2014

Change the Weather History Date:

Tuesday, March 18, 2014

  Actual Average Record
Temperature  
Mean Temperature 42 °F -  
Max Temperature 57 °F 64 °F 82 °F (1945)
Min Temperature 28 °F 41 °F 24 °F (1947)
Degree Days  
Heating Degree Days 22    
Moisture  
Dew Point 35 °F    
Average Humidity 76    
Maximum Humidity 100    
Minimum Humidity 51    
Precipitation  
Precipitation 0.00 in - - ()
Sea Level Pressure  
Sea Level Pressure 29.88 in    
Wind  
Wind Speed 2 mph (South)    
Max Wind Speed 9 mph    
Max Gust Speed -    
Visibility 8 miles    
Events      
Averages and records for this station are not official NWS values.
T = Trace of Precipitation, MM = Missing Value Source: NWS Daily Summary

Daily Weather History Graph

Daily Weather History Graph

Search for Another Location

Airport or City:

Trip Planner

Search our weather history database for the weather conditions in past years. The results will help you decide how hot, cold, wet, or windy it might be!

Date:

Astronomy

Mar. 18, 2014 Rise Set
Actual Time 7:04 AM CDT 7:08 PM CDT
Civil Twilight 6:39 AM CDT 7:33 PM CDT
Nautical Twilight 6:10 AM CDT 8:02 PM CDT
Astronomical Twilight 5:40 AM CDT 8:32 PM CDT
Moon 9:18 PM CDT (3/18) 7:59 AM CDT (3/18)
Length of Visible Light 12h 53m
Length of Day
12h 03m
Waning Gibbous, 96% of the Moon is Illuminated
Mar 18
Waning Gibbous
Mar 23
Last Quarter
Mar 30
New
Apr 7
First Quarter
Apr 15
Full

Hourly Weather History & Observations

Time (CDT) Temp. Windchill Dew Point Humidity Pressure Visibility Wind Dir Wind Speed Gust Speed Precip Events Conditions
12:15 AM 32.0 °F - 32.0 °F 100% 29.87 in 7.0 mi Calm Calm - N/A   Clear
12:35 AM 32.0 °F - 32.0 °F 100% 29.86 in 7.0 mi Calm Calm - N/A   Clear
12:55 AM 32.0 °F - 32.0 °F 100% 29.87 in 9.0 mi Calm Calm - N/A   Clear
1:15 AM 32.0 °F - 32.0 °F 100% 29.86 in 8.0 mi Calm Calm - N/A   Clear
1:35 AM 32.0 °F - 30.2 °F 93% 29.87 in 9.0 mi Calm Calm - N/A   Clear
1:55 AM 32.0 °F - 30.2 °F 93% 29.87 in 7.0 mi Calm Calm - N/A   Clear
2:15 AM 32.0 °F - 30.2 °F 93% 29.86 in 6.0 mi Calm Calm - N/A   Clear
2:35 AM 32.0 °F - 30.2 °F 93% 29.85 in 6.0 mi Calm Calm - N/A   Clear
2:55 AM 32.0 °F - 30.2 °F 93% 29.85 in 6.0 mi Calm Calm - N/A   Clear
3:15 AM 32.0 °F - 30.2 °F 93% 29.83 in 5.0 mi Calm Calm - N/A   Clear
3:35 AM 32.0 °F - 30.2 °F 93% 29.84 in 8.0 mi Calm Calm - N/A   Clear
3:55 AM 30.2 °F - 28.4 °F 93% 29.84 in 8.0 mi Calm Calm - N/A   Clear
4:15 AM 28.4 °F - 28.4 °F 100% 29.83 in 5.0 mi Calm Calm - N/A   Clear
4:35 AM 28.4 °F - 28.4 °F 100% 29.84 in 5.0 mi Calm Calm - N/A   Clear
4:55 AM 28.4 °F - 28.4 °F 100% 29.84 in 4.0 mi Calm Calm - N/A   Clear
5:15 AM 28.4 °F - 28.4 °F 100% 29.85 in 6.0 mi Calm Calm - N/A   Clear
5:35 AM 28.4 °F - 26.6 °F 93% 29.85 in 6.0 mi Calm Calm - N/A   Clear
5:55 AM 28.4 °F - 28.4 °F 100% 29.86 in 7.0 mi Calm Calm - N/A   Clear
6:15 AM 28.4 °F - 28.4 °F 100% 29.87 in 9.0 mi Calm Calm - N/A   Clear
6:35 AM 28.4 °F - 26.6 °F 93% 29.88 in 6.0 mi Calm Calm - N/A   Clear
6:55 AM 28.4 °F - 26.6 °F 93% 29.90 in 5.0 mi Calm Calm - N/A   Clear
7:15 AM 28.4 °F - 28.4 °F 100% 29.90 in 4.0 mi Calm Calm - N/A   Clear
7:35 AM 28.4 °F - 28.4 °F 100% 29.90 in 3.0 mi Calm Calm - N/A   Clear
7:55 AM 32.0 °F - 30.2 °F 93% 29.92 in 3.0 mi Calm Calm - N/A   Clear
8:15 AM 32.0 °F - 32.0 °F 100% 29.92 in 5.0 mi Calm Calm - N/A   Clear
8:35 AM 35.6 °F - 33.8 °F 93% 29.94 in 7.0 mi Calm Calm - N/A   Clear
8:55 AM 37.4 °F 33.8 °F 33.8 °F 87% 29.95 in 7.0 mi South 4.6 mph - N/A   Clear
9:15 AM 39.2 °F 37.0 °F 35.6 °F 87% 29.96 in 8.0 mi SSW 3.5 mph - N/A   Clear
9:35 AM 39.2 °F 33.0 °F 35.6 °F 87% 29.96 in 9.0 mi SW 9.2 mph - N/A   Clear
9:55 AM 41.0 °F 39.0 °F 35.6 °F 81% 29.96 in 10.0 mi South 3.5 mph - N/A   Partly Cloudy
10:15 AM 44.6 °F 41.4 °F 35.6 °F 71% 29.96 in 10.0 mi South 5.8 mph - N/A   Mostly Cloudy
10:35 AM 44.6 °F 41.4 °F 35.6 °F 71% 29.97 in 10.0 mi SSE 5.8 mph - N/A   Mostly Cloudy
10:55 AM 44.6 °F 42.2 °F 35.6 °F 71% 29.97 in 10.0 mi South 4.6 mph - N/A   Overcast
11:15 AM 46.4 °F 41.9 °F 35.6 °F 66% 29.97 in 10.0 mi SSW 9.2 mph - N/A   Overcast
11:35 AM 46.4 °F 45.2 °F 35.6 °F 66% 29.97 in 10.0 mi South 3.5 mph - N/A   Overcast
11:55 AM 46.4 °F 42.9 °F 35.6 °F 66% 29.95 in 10.0 mi South 6.9 mph - N/A   Mostly Cloudy
12:15 PM 48.2 °F - 35.6 °F 62% 29.95 in 10.0 mi SSE 5.8 mph - N/A   Scattered Clouds
12:35 PM 50.0 °F - 37.4 °F 62% 29.94 in 10.0 mi SSE 3.5 mph - N/A   Mostly Cloudy
12:55 PM 50.0 °F - 37.4 °F 62% 29.93 in 10.0 mi South 5.8 mph - N/A   Scattered Clouds
1:15 PM 51.8 °F - 37.4 °F 58% 29.92 in 10.0 mi South 5.8 mph - N/A   Partly Cloudy
1:35 PM 53.6 °F - 37.4 °F 54% 29.91 in 10.0 mi SSE 5.8 mph - N/A   Clear
1:55 PM 53.6 °F - 39.2 °F 58% 29.89 in 10.0 mi SSE 4.6 mph - N/A   Clear
2:15 PM 55.4 °F - 39.2 °F 54% 29.87 in 10.0 mi South 6.9 mph - N/A   Clear
2:35 PM 55.4 °F - 39.2 °F 54% 29.86 in 10.0 mi South 8.1 mph - N/A   Clear
2:55 PM 55.4 °F - 39.2 °F 54% 29.85 in 10.0 mi South 6.9 mph - N/A   Clear
3:15 PM 55.4 °F - 39.2 °F 54% 29.86 in 10.0 mi South 5.8 mph - N/A   Clear
3:35 PM 55.4 °F - 39.2 °F 54% 29.84 in 10.0 mi South 8.1 mph - N/A   Clear
3:55 PM 55.4 °F - 39.2 °F 54% 29.83 in 10.0 mi South 8.1 mph - N/A   Clear
4:15 PM 57.2 °F - 39.2 °F 51% 29.82 in 10.0 mi South 5.8 mph - N/A   Clear
4:35 PM 57.2 °F - 39.2 °F 51% 29.82 in 10.0 mi South 8.1 mph - N/A   Clear
4:55 PM 57.2 °F - 39.2 °F 51% 29.82 in 10.0 mi SSE 5.8 mph - N/A   Clear
5:15 PM 57.2 °F - 39.2 °F 51% 29.81 in 9.0 mi SE 6.9 mph - N/A   Clear
5:35 PM 57.2 °F - 39.2 °F 51% 29.82 in 10.0 mi SSE 5.8 mph - N/A   Clear
5:55 PM 57.2 °F - 39.2 °F 51% 29.83 in 10.0 mi SE 5.8 mph - N/A   Clear
6:15 PM 55.4 °F - 39.2 °F 54% 29.82 in 10.0 mi SSE 5.8 mph - N/A   Clear
6:35 PM 55.4 °F - 39.2 °F 54% 29.82 in 10.0 mi South 5.8 mph - N/A   Clear
6:55 PM 53.6 °F - 39.2 °F 58% 29.82 in 10.0 mi SSE 5.8 mph - N/A   Clear
7:15 PM 51.8 °F - 39.2 °F 62% 29.81 in 10.0 mi SSE 5.8 mph - N/A   Clear
7:35 PM 51.8 °F - 39.2 °F 62% 29.83 in 10.0 mi South 4.6 mph - N/A   Clear
7:55 PM 51.8 °F - 39.2 °F 62% 29.87 in 10.0 mi South 3.5 mph - N/A   Clear
8:15 PM 50.0 °F - 41.0 °F 71% 29.87 in 10.0 mi Calm Calm - N/A   Clear
8:35 PM 50.0 °F - 41.0 °F 71% 29.88 in 10.0 mi South 4.6 mph - N/A   Clear
8:55 PM 50.0 °F - 41.0 °F 71% 29.89 in 10.0 mi South 4.6 mph - N/A   Clear
9:15 PM 50.0 °F - 41.0 °F 71% 29.91 in 10.0 mi South 3.5 mph - N/A   Clear
9:35 PM 50.0 °F - 41.0 °F 71% 29.89 in 10.0 mi SSE 4.6 mph - N/A   Clear
9:55 PM 50.0 °F - 41.0 °F 71% 29.90 in 10.0 mi SSE 4.6 mph - N/A   Clear
10:15 PM 50.0 °F - 41.0 °F 71% 29.91 in 10.0 mi SSE 3.5 mph - N/A   Clear
10:35 PM 50.0 °F - 41.0 °F 71% 29.91 in 10.0 mi SSE 5.8 mph - N/A   Clear
10:55 PM 50.0 °F - 41.0 °F 71% 29.91 in 10.0 mi SSE 4.6 mph - N/A   Clear
11:15 PM 50.0 °F - 41.0 °F 71% 29.91 in 10.0 mi SSE 4.6 mph - N/A   Clear
11:35 PM 48.2 °F - 41.0 °F 76% 29.91 in 10.0 mi South 5.8 mph - N/A   Clear
11:55 PM 48.2 °F - 41.0 °F 76% 29.92 in 10.0 mi South 4.6 mph - N/A   Clear